Zurück zum Katalog

STARLINK-11498

AktivKommunikationVLEO
NORAD 62276·PAYLOAD·🇺🇸 United States

Gestartet Dec 8, 2024 von Cape Canaveral Space Force Station

Loading…

Nächste Überflüge (nächste 24 Stunden)

TLE

AktuellSource: CelesTrak SupGP

Epoche: Sep 14, 2026, 21:08 UTC

1 62276C 24237K   26257.88104167  .00018553  00000+0  14398-3 0  2574
2 62276  43.0007 356.1873 0001626 287.6807 214.5792 15.70849978    14

Verfolge STARLINK-11498 in Echtzeit mit AllMySat

Download on the App Store